FW3958 Weather Reports


time (UTC)temp
C
wind
direction
speed
KPH
gust
KPH
rain 1hr
cm
rain 24hr
cm
rain mn
cm
humidity
%
barometer
mb
20260508193022 15 254 3.2 19.3 0.00 0.00 0.00 81 1024.0
20260508191520 15 218 4.8 17.7 0.00 0.00 0.00 80 1023.9
20260508190017 13 207 12.9 24.1 0.00 0.00 0.00 84 1024.1
20260508184514 12 202 11.3 20.9 0.00 0.00 0.00 84 1024.1
20260508183013 12 214 4.8 19.3 0.00 0.00 0.00 84 1024.3
20260508181520 12 192 3.2 24.1 0.00 0.00 0.00 85 1024.1
20260508180010 12 197 12.9 25.7 0.00 0.00 0.00 84 1024.1
20260508174509 12 178 12.9 22.5 0.00 0.00 0.00 85 1024.0
20260508173007 12 280 6.4 25.7 0.00 0.00 0.00 85 1023.8
20260508171509 12 221 6.4 24.1 0.00 0.00 0.00 84 1023.6
20260508170004 12 213 8.0 22.5 0.00 0.00 0.00 85 1023.7
20260508164501 12 247 9.7 24.1 0.00 0.00 0.00 86 1023.4
20260508163105 11 233 11.3 22.5 0.00 0.00 0.00 85 1023.3
20260508161605 11 189 3.2 11.3 0.00 0.00 0.00 89 1023.1
20260508160154 11 154 3.2 8.0 0.00 0.00 0.00 89 1023.0
20260508154557 11 202 1.6 11.3 0.00 0.00 0.00 90 1023.1
20260508153054 11 184 1.6 6.4 0.00 0.00 0.00 90 1022.9
20260508151547 11 174 1.6 6.4 0.00 0.00 0.00 91 1022.7
20260508150043 10 180 1.6 6.4 0.00 0.00 0.00 91 1022.4
20260508144539 10 167 0.0 4.8 0.00 0.00 0.00 92 1022.0
20260508143037 10 166 1.6 6.4 0.00 0.00 0.00 93 1022.1
20260508141533 10 170 0.0 1.6 0.00 0.00 0.00 94 1021.9
20260508140034 9 186 0.0 3.2 0.00 0.00 0.00 96 1021.8
20260508134528 9 195 0.0 1.6 0.00 0.00 0.00 97 1021.8
20260508133028 8 195 0.0 3.2 0.00 0.00 0.00 99 1022.0
20260508131524 8 203 0.0 1.6 0.00 0.00 0.00 100 1022.1
20260508130026 8 205 0.0 4.8 0.00 0.00 0.00 100 1021.8
20260508124520 8 209 0.0 4.8 0.00 0.00 0.00 100 1021.5
20260508123019 8 268 0.0 1.6 0.00 0.00 0.00 100 1021.5
20260508121518 8 268 0.0 0.0 0.00 0.00 0.00 100 1021.6
20260508120016 8 268 0.0 0.0 0.00 0.00 0.00 100 1021.6
20260508114514 8 268 0.0 0.0 0.00 0.00 0.00 100 1021.4
20260508113017 7 268 0.0 0.0 0.00 0.00 0.00 100 1021.4
20260508111513 7 268 0.0 0.0 0.00 0.00 0.00 100 1021.3
20260508110010 7 268 0.0 0.0 0.00 0.00 0.00 100 1021.4
20260508104506 7 268 0.0 0.0 0.00 0.00 0.00 100 1021.3
20260508103014 6 268 0.0 0.0 0.00 0.00 0.00 100 1021.1
20260508101505 6 268 0.0 0.0 0.00 0.00 0.00 100 1021.0
20260508094607 6 268 0.0 0.0 0.00 0.00 0.00 100 1020.7
20260508093056 6 268 0.0 0.0 0.00 0.00 0.00 100 1020.7
20260508091559 6 268 0.0 0.0 0.00 0.00 0.00 100 1020.6
20260508090055 6 268 0.0 0.0 0.00 0.00 0.00 100 1020.5
20260508084552 6 268 0.0 0.0 0.00 0.00 0.00 100 1020.5
20260508083053 5 268 0.0 0.0 0.00 0.00 0.00 100 1020.4
20260508081604 5 268 0.0 0.0 0.00 0.00 0.00 100 1020.3
20260508080049 5 268 0.0 0.0 0.00 0.00 0.00 100 1020.3
20260508074547 5 268 0.0 0.0 0.00 0.00 0.00 100 1020.4
20260508073046 5 268 0.0 0.0 0.00 0.00 0.00 100 1020.4
20260508071545 6 268 0.0 1.6 0.00 0.00 0.00 100 1020.4
20260508070046 6 268 0.0 0.0 0.00 0.00 0.00 99 1020.4
20260508064540 6 268 0.0 0.0 0.00 0.00 0.00 99 1020.3
20260508063039 6 268 0.0 0.0 0.00 0.00 0.00 99 1020.2
20260508061539 6 268 0.0 0.0 0.00 0.00 0.00 99 1020.3
20260508060037 6 268 0.0 1.6 0.00 0.00 0.00 99 1020.5
20260508054542 6 268 0.0 0.0 0.00 0.00 0.00 98 1020.2
20260508053035 7 268 0.0 3.2 0.00 0.00 0.00 98 1020.4
20260508051533 7 301 0.0 0.0 0.00 0.00 0.00 97 1020.3
20260508050032 7 301 0.0 0.0 0.00 0.00 0.00 97 1020.4
20260508044530 7 301 0.0 1.6 0.00 0.00 0.00 96 1020.5
20260508043027 7 301 0.0 0.0 0.00 0.00 0.00 95 1020.7
20260508041525 8 301 0.0 0.0 0.00 0.00 0.00 93 1020.6
20260508040023 8 301 0.0 0.0 0.00 0.00 0.00 93 1020.5
20260508034524 9 301 0.0 1.6 0.00 0.00 0.00 92 1020.5
20260508033025 9 301 0.0 1.6 0.00 0.00 0.00 89 1020.5
20260508031620 10 301 0.0 0.0 0.00 0.00 0.00 88 1020.5
20260508030020 10 301 0.0 3.2 0.00 0.00 0.00 87 1020.4
20260508024519 11 303 0.0 4.8 0.00 0.00 0.00 85 1020.3
20260508023021 11 294 1.6 8.0 0.00 0.00 0.00 82 1020.2
20260508021517 12 285 4.8 11.3 0.00 0.00 0.00 78 1020.3
20260508020016 13 297 4.8 9.7 0.00 0.00 0.00 79 1020.4
20260508014515 13 276 3.2 9.7 0.00 0.00 0.00 78 1020.4
20260508013013 13 297 4.8 11.3 0.00 0.00 0.00 78 1020.6
20260508011513 13 298 3.2 9.7 0.00 0.00 0.00 79 1020.8
20260508010012 13 295 4.8 12.9 0.00 0.00 0.00 76 1020.8
20260508004511 13 300 4.8 14.5 0.00 0.00 0.00 77 1020.9
20260508003110 13 296 4.8 11.3 0.00 0.00 0.00 76 1021.0
20260508001509 13 294 6.4 12.9 0.00 0.00 0.00 79 1021.0
20260508000008 13 302 8.0 12.9 0.00 0.00 0.00 77 1020.9
20260507234508 14 341 4.8 12.9 0.00 0.00 0.00 77 1020.9
20260507233001 13 325 8.0 12.9 0.00 0.00 0.00 76 1021.2
20260507231606 13 299 6.4 19.3 0.00 0.00 0.00 76 1021.4
20260507230101 14 297 4.8 16.1 0.00 0.00 0.00 76 1021.4
20260507224601 13 304 6.4 19.3 0.00 0.00 0.00 74 1021.6
20260507223100 14 319 8.0 17.7 0.00 0.00 0.00 75 1021.7
20260507221554 14 292 8.0 16.1 0.00 0.00 0.00 74 1021.8
20260507220053 14 275 8.0 16.1 0.00 0.00 0.00 76 1022.0
20260507214558 14 303 11.3 17.7 0.00 0.00 0.00 75 1022.1
20260507213051 15 305 12.9 16.1 0.00 0.00 0.00 75 1022.1
20260507211551 15 300 6.4 14.5 0.00 0.00 0.00 74 1021.9
20260507210050 15 14 8.0 14.5 0.00 0.00 0.00 76 1021.9
20260507204545 14 336 6.4 12.9 0.00 0.00 0.00 73 1022.1
20260507203049 14 312 4.8 16.1 0.00 0.00 0.00 74 1022.2
20260507201542 14 9 8.0 17.7 0.00 0.00 0.00 74 1022.3
20260507200048 14 277 4.8 16.1 0.00 0.00 0.00 73 1022.2
20260507194541 14 1 6.4 16.1 0.00 0.00 0.00 73 1022.3